Kirksville, MO

11:54 AM CDT on June 29, 2017 (GMT -0500)
Kirksville Regional

Weather History for KIRK - May, 2014

Change the Weather History Date:

Tuesday, May 6, 2014

  Actual Average Record
Temperature  
Mean Temperature 65 °F 58 °F  
Max Temperature 80 °F 69 °F 89 °F (1934)
Min Temperature 50 °F 48 °F 32 °F (1989)
Degree Days  
Heating Degree Days 0 7  
Month to date heating degree days 43 48  
Since 1 July heating degree days 6316 5738  
Cooling Degree Days 0 1  
Month to date cooling degree days 0 5  
Year to date cooling degree days 5 12  
Growing Degree Days 16 (Base 50)    
Moisture  
Dew Point 52 °F    
Average Humidity 58    
Maximum Humidity 73    
Minimum Humidity 43    
Precipitation  
Precipitation 0.00 in 0.17 in 2.46 in (1960)
Month to date precipitation 0.01 1.11  
Year to date precipitation 7.61 10.30  
Sea Level Pressure  
Sea Level Pressure 29.70 in    
Wind  
Wind Speed 12 mph (ESE)    
Max Wind Speed 21 mph    
Max Gust Speed 26 mph    
Visibility 10 miles    
Events      
T = Trace of Precipitation, MM = Missing Value Source: NWS Daily Summary

Daily Weather History Graph

Daily Weather History Graph

Search for Another Location

Airport or City:

Trip Planner

Search our weather history database for the weather conditions in past years. The results will help you decide how hot, cold, wet, or windy it might be!

Date:

Astronomy

May. 06, 2014 Rise Set
Actual Time 6:04 AM CDT 8:10 PM CDT
Civil Twilight 5:34 AM CDT 8:40 PM CDT
Nautical Twilight 4:57 AM CDT 9:16 PM CDT
Astronomical Twilight 4:17 AM CDT 9:56 PM CDT
Moon 12:20 PM CDT (5/6) 1:29 AM CDT (5/6)
Length of Visible Light 15h 05m
Length of Day
14h 06m
Waxing Crescent, 46% of the Moon is Illuminated
May 6
Waxing Crescent
May 6
First Quarter
May 14
Full
May 21
Last Quarter
May 28
New

Hourly Weather History & Observations

Time (CDT) Temp. Heat Index Dew Point Humidity Pressure Visibility Wind Dir Wind Speed Gust Speed Precip Events Conditions
12:55 AM 57.9 °F - 42.1 °F 56% 29.83 in 10.0 mi ENE 11.5 mph - N/A   Clear
1:55 AM 55.9 °F - 39.9 °F 55% 29.83 in 10.0 mi East 13.8 mph - N/A   Clear
6:55 AM 51.1 °F - 39.0 °F 63% 29.83 in 10.0 mi East 11.5 mph - N/A   Clear
7:55 AM 53.1 °F - 39.9 °F 61% 29.83 in 10.0 mi East 12.7 mph - N/A   Clear
9:55 AM 62.1 °F - 45.0 °F 53% 29.80 in 10.0 mi ESE 13.8 mph - N/A   Clear
10:55 AM 64.9 °F - 46.9 °F 52% 29.79 in 10.0 mi East 13.8 mph - N/A   Clear
11:55 AM 68.0 °F - 48.9 °F 50% 29.75 in 10.0 mi ESE 15.0 mph 21.9 mph N/A   Clear
12:55 PM 71.1 °F - 51.1 °F 49% 29.73 in 10.0 mi East 16.1 mph - N/A   Clear
1:55 PM 73.9 °F - 53.1 °F 48% 29.70 in 10.0 mi ESE 16.1 mph - N/A   Clear
2:55 PM 77.0 °F - 54.0 °F 45% 29.70 in 10.0 mi SE 16.1 mph - N/A   Clear
3:55 PM 79.0 °F - 55.9 °F 45% 29.66 in 10.0 mi ESE 13.8 mph 20.7 mph N/A   Clear
4:55 PM 80.1 °F 80.4 °F 57.0 °F 45% 29.64 in 10.0 mi ESE 15.0 mph - N/A   Clear
5:55 PM 80.1 °F 80.4 °F 57.0 °F 45% 29.61 in 10.0 mi ESE 12.7 mph - N/A   Clear
6:55 PM 79.0 °F - 59.0 °F 50% 29.60 in 10.0 mi ESE 15.0 mph 21.9 mph N/A   Clear
7:55 PM 77.0 °F - 59.0 °F 54% 29.60 in 10.0 mi ESE 8.1 mph - N/A   Clear
8:55 PM 73.0 °F - 59.0 °F 61% 29.61 in 10.0 mi ESE 4.6 mph - N/A   Clear
9:55 PM 70.0 °F - 59.0 °F 68% 29.62 in 10.0 mi ESE 4.6 mph - N/A   Clear
10:55 PM 70.0 °F - 60.1 °F 71% 29.63 in 10.0 mi South 10.4 mph - N/A   Clear
11:55 PM 75.9 °F - 57.9 °F 54% 29.63 in 10.0 mi South 9.2 mph - N/A   Clear